Total_Precipitation_Accumulation
0.02 0.06 0.16 0.34 0.43 2.18 2.37 2.65 4.73 3.53 3.28 2.48 2.53 3.37 3.10 0.96 1.03 2.04 1.89 1.11 1.10 0.25 0.80 0.46 0.53 0.30 1.33 0.57 0.22 0.20 0.26 0.47 0.24 1.34 0.78 0.58 0.16 0.25 0.28 0.29 0.31 0.31 0.32 0.35 0.63 1.08 1.01 0.69 0.52 0.75 0.84 0.37 0.35 0.35 0.53 0.79 0.49 0.41 0.36 0.37 0.40 0.27 0.32 0.36 0.40 0.42 0.40 0.50 0.37 0.53 0.35 0.45 0.58 0.44 0.56 0.79 0.71 0.53 0.96 0.96 0.89 1.16 0.92 0.60 0.91 0.96 0.94 1.01 1.12 1.11 1.17 1.01 0.91 1.01 0.73 0.93 0.71
0.06 0.10 0.10 0.73 1.39 3.86 4.51 2.65 2.75 2.56 2.39 2.81 2.37 2.09 1.83 1.61 1.74 1.39 1.63 1.65 0.48 0.18 0.23 0.28 0.29 0.55 0.36 0.03 0.06 0.04 0.18 0.23 0.21 0.11 0.19 0.24 0.33 0.37 0.22 0.23 0.24 0.26 0.25 0.29 0.42 0.62 0.59 0.66 0.44 0.51 0.67 0.37 0.42 0.45 0.58 0.47 0.50 0.57 0.40 0.28 0.37 0.27 0.34 0.52 0.49 0.51 0.48 0.56 0.57 0.72 0.65 0.54 0.56 0.63 0.70 1.00 0.75 0.94 1.06 0.80 1.12 1.12 0.91 0.89 1.14 0.75 1.04 1.06 0.98 1.02 1.15 0.96 1.06 1.09 0.81 1.07 1.10
0.11 0.13 0.34 0.46 1.63 1.85 3.66 2.48 4.90 2.90 3.17 2.61 2.64 3.12 2.06 1.82 2.01 1.45 1.64 1.40 0.24 0.36 0.05 0.21 0.23 0.62 0.14 0.09 0.20 0.36 0.29 0.13 0.10 0.05 0.32 0.45 0.54 0.88 0.30 0.23 0.25 0.18 0.19 0.24 0.34 0.61 0.57 0.65 0.22 0.43 0.50 0.33 0.26 0.25 0.26 0.30 0.29 0.43 0.34 0.27 0.38 0.33 0.35 0.49 0.65 0.55 0.60 0.64 0.77 0.67 0.70 0.68 0.77 0.67 0.79 0.94 0.99 0.99 0.86 0.94 1.10 1.36 0.99 0.94 0.88 1.06 1.35 0.96 1.13 0.97 1.44 1.17 1.43 1.02 0.85 1.04 1.31
0.21 0.15 1.01 0.68 4.59 2.98 4.44 3.49 2.55 2.88 3.27 2.10 2.06 2.00 2.85 2.34 1.55 1.40 1.50 0.44 0.35 0.35 0.09 0.07 0.82 0.36 0.27 0.26 0.13 0.09 0.13 0.26 0.03 0.02 0.42 0.39 0.35 0.24 0.23 0.19 0.17 0.18 0.19 0.27 0.49 0.40 0.44 0.30 0.21 0.50 0.39 0.24 0.16 0.22 0.22 0.19 0.21 0.34 0.35 0.23 0.33 0.28 0.43 0.62 0.45 0.39 0.51 0.56 0.59 0.73 0.75 0.62 0.67 0.81 0.88 1.06 1.10 1.21 1.34 0.98 1.48 1.15 1.10 1.32 1.01 1.60 1.06 1.12 1.28 1.37 1.16 1.08 1.32 1.13 1.13 1.17 1.06
0.33 0.37 0.59 1.75 2.75 4.91 3.31 3.68 4.30 2.95 2.91 3.12 2.85 2.42 2.32 2.21 1.42 1.08 0.91 0.70 0.23 0.26 0.23 0.11 0.08 0.26 0.84 0.47 0.11 0.37 0.36 0.16 0.03 0.02 0.11 0.21 0.08 0.21 0.21 0.16 0.18 0.17 0.30 0.41 0.64 0.40 0.49 0.28 0.29 0.47 0.27 0.22 0.22 0.21 0.35 0.14 0.12 0.15 0.50 0.38 0.31 0.39 0.45 0.46 0.34 0.33 0.39 0.52 0.58 0.70 0.89 0.71 0.83 0.90 1.13 1.28 1.14 0.92 1.47 1.42 1.26 1.33 1.52 1.53 1.40 1.41 1.24 1.30 1.26 1.29 1.42 1.37 1.03 1.06 1.09 1.16 1.10
0.42 0.63 1.60 2.05 6.35 3.78 1.99 3.16 3.87 3.24 3.32 2.32 3.01 2.10 1.87 1.96 2.06 0.75 0.35 0.27 0.55 0.50 0.25 0.16 0.17 0.11 0.09 0.05 0.03 0.19 0.16 0.32 0.19 0.13 0.12 0.19 0.16 0.14 0.13 0.14 0.22 0.29 0.37 0.26 0.25 0.22 0.46 0.23 0.32 0.32 0.17 0.16 0.17 0.14 0.11 0.09 0.19 0.46 0.26 0.35 0.22 0.44 0.57 0.87 0.56 0.33 0.40 0.33 0.51 0.84 0.62 0.80 0.89 0.88 1.40 1.22 1.16 1.51 1.26 1.31 1.26 1.20 1.09 1.52 1.47 1.32 1.27 1.32 1.28 1.11 1.12 1.14 0.94 0.97 1.37 1.23 1.07
1.00 1.47 2.83 2.66 2.94 3.23 4.25 3.56 2.92 2.58 3.17 2.69 2.62 1.87 2.30 2.01 1.54 0.85 0.63 0.28 0.48 0.48 0.25 0.11 0.09 0.15 0.24 0.12 0.13 0.08 0.06 0.05 0.15 0.11 0.08 0.09 0.12 0.12 0.12 0.15 0.22 0.29 0.31 0.22 0.30 0.26 0.40 0.16 0.32 0.29 0.37 0.15 0.14 0.10 0.09 0.14 0.11 0.30 0.24 0.33 0.40 0.32 0.75 0.70 0.42 0.42 0.37 0.36 0.52 0.75 0.76 0.60 0.70 1.04 1.22 1.10 1.13 0.94 1.38 1.34 1.29 1.14 1.04 1.24 1.42 1.35 1.11 0.98 0.94 1.06 0.97 0.98 1.10 0.94 1.13 1.17 1.01
0.38 2.58 4.00 3.49 4.52 2.67 4.19 3.63 3.13 2.57 2.65 3.52 2.24 2.02 1.95 2.59 1.45 1.22 0.94 1.04 0.27 0.41 0.23 0.05 0.07 0.22 0.46 0.06 0.57 0.17 0.06 0.06 0.08 0.06 0.05 0.06 0.07 0.10 0.13 0.14 0.21 0.24 0.24 0.21 0.30 0.20 0.29 0.13 0.32 0.27 0.19 0.14 0.22 0.17 0.21 0.19 0.31 0.31 0.39 0.30 0.31 0.51 0.71 0.63 0.46 0.46 0.46 0.47 0.56 0.58 0.62 0.54 0.87 0.69 0.72 1.25 1.06 1.17 1.11 1.07 0.99 0.87 1.25 1.15 1.29 1.54 1.00 0.88 0.93 1.36 1.35 1.22 0.96 0.85 0.81 1.05 1.31
1.62 1.45 2.63 3.48 4.51 3.60 3.20 3.20 3.38 2.56 2.43 2.56 2.23 2.90 2.50 1.94 1.33 1.22 1.24 0.62 0.27 0.27 0.16 0.12 0.08 0.35 0.27 0.30 0.31 0.31 0.15 0.08 0.05 0.04 0.03 0.05 0.09 0.08 0.14 0.17 0.20 0.25 0.18 0.29 0.27 0.31 0.42 0.18 0.27 0.24 0.31 0.44 0.27 0.37 0.32 0.57 0.53 0.51 0.52 0.49 0.53 0.46 0.64 0.64 0.59 0.59 0.47 0.45 0.59 0.76 0.82 0.57 0.67 0.81 0.69 0.87 1.11 1.27 1.16 0.88 1.07 0.99 1.07 1.25 1.22 1.37 1.28 0.93 1.10 1.24 1.10 1.21 0.95 0.69 1.09 0.97 0.82
1.86 1.04 4.82 3.58 2.57 4.20 2.91 3.18 3.47 4.23 4.58 2.48 2.42 2.33 2.41 1.72 1.61 1.61 0.98 0.85 0.71 0.19 0.21 0.13 0.11 0.68 0.22 0.22 0.26 0.22 0.26 0.07 0.06 0.06 0.05 0.05 0.09 0.11 0.14 0.16 0.20 0.25 0.33 0.22 0.19 0.20 0.28 0.33 0.15 0.17 0.36 0.26 0.28 0.49 0.55 0.58 0.72 0.77 0.49 0.60 0.69 0.67 0.65 0.62 0.69 0.74 0.66 0.66 0.96 0.88 0.70 0.72 0.54 0.64 0.88 1.02 0.93 1.10 0.96 0.90 0.81 1.00 0.84 1.02 1.25 1.34 1.07 0.90 1.21 1.52 1.18 1.00 0.86 0.83 0.85 0.87 0.82
3.04 2.19 2.57 3.22 3.41 2.86 3.89 3.06 3.52 2.49 2.71 2.39 2.46 2.48 2.70 1.50 1.23 2.09 1.79 1.32 0.88 0.23 0.10 0.10 0.19 0.21 0.13 0.27 0.35 0.24 0.09 0.04 0.04 0.09 0.07 0.07 0.08 0.08 0.10 0.13 0.25 0.20 0.28 0.26 0.23 0.24 0.25 0.47 0.49 0.21 0.25 0.33 0.53 0.62 0.63 0.54 0.65 0.71 0.55 0.57 0.79 0.92 0.61 0.83 1.07 0.93 0.88 0.87 1.02 0.89 0.86 0.83 0.91 0.72 0.87 1.22 1.06 1.07 1.00 1.02 0.79 0.87 0.83 1.01 1.29 1.00 1.07 1.05 1.07 1.30 1.04 0.86 0.89 0.84 1.01 0.79 0.65
1.85 2.51 2.90 3.75 3.30 3.11 3.20 3.54 3.37 3.42 3.29 3.28 2.93 3.13 1.75 1.62 1.48 1.32 1.17 0.80 0.52 0.15 0.26 0.15 0.57 0.12 0.09 0.12 0.36 0.47 0.10 0.07 0.06 0.04 0.04 0.08 0.06 0.06 0.08 0.10 0.15 0.23 0.13 0.23 0.26 0.22 0.39 0.59 0.43 0.68 0.43 0.55 0.58 0.40 0.65 0.62 0.77 0.73 0.76 0.57 0.62 0.83 0.88 0.73 0.78 1.03 0.90 1.05 0.89 0.98 0.96 0.99 0.98 0.87 1.13 1.11 1.36 1.03 1.13 1.11 0.89 0.93 0.88 1.24 1.40 0.87 1.03 1.15 1.06 1.19 1.07 0.84 0.77 0.87 1.12 0.72 0.54
1.63 1.75 4.41 3.33 2.86 3.51 3.39 3.62 3.90 3.39 3.19 3.75 3.59 1.93 1.50 1.21 2.04 2.03 1.50 1.30 1.04 0.21 0.35 0.57 0.04 0.09 0.24 0.18 0.36 0.17 0.11 0.08 0.08 0.03 0.04 0.06 0.06 0.06 0.08 0.09 0.12 0.13 0.16 0.14 0.20 0.37 0.34 0.48 0.52 0.68 0.85 1.03 0.78 0.67 0.80 1.14 0.89 0.73 0.88 0.77 1.01 0.88 1.00 1.19 1.04 1.25 0.87 0.94 1.05 1.03 1.03 1.13 1.48 0.98 0.91 0.92 0.91 1.10 1.12 1.16 1.01 0.90 0.96 0.94 0.93 0.87 1.12 0.91 0.99 1.31 0.95 0.78 0.96 0.84 1.15 0.80 0.38
0.85 1.63 2.78 3.92 2.22 3.31 4.42 4.58 3.19 3.30 3.63 3.26 3.39 2.05 1.75 1.90 2.07 2.00 1.26 1.69 0.84 0.95 0.19 0.07 0.15 0.10 0.22 0.08 0.78 0.26 0.17 0.13 0.05 0.07 0.05 0.09 0.05 0.06 0.08 0.08 0.11 0.15 0.16 0.12 0.22 0.24 0.49 0.74 1.00 0.67 0.89 1.04 1.60 1.10 1.37 1.00 0.84 1.09 0.99 0.89 0.93 1.04 0.96 0.90 1.22 1.22 1.24 1.01 1.12 1.14 1.43 1.47 1.51 1.16 1.24 0.76 1.11 1.16 0.86 0.88 0.85 0.86 0.89 0.82 0.95 1.23 0.72 0.96 1.25 1.07 0.90 0.59 0.66 0.54 0.88 0.48 0.46
2.00 1.58 3.05 2.42 2.81 2.40 2.62 3.44 2.87 2.29 4.57 3.29 2.42 2.78 2.74 2.43 2.36 1.40 1.80 0.89 0.99 0.37 0.12 0.04 0.12 0.17 0.30 0.04 0.21 0.09 0.08 0.08 0.04 0.06 0.06 0.09 0.06 0.07 0.06 0.09 0.10 0.13 0.16 0.16 0.39 0.80 0.89 0.98 0.89 0.76 1.14 0.92 1.12 1.19 1.41 1.19 1.15 0.95 1.07 1.05 1.15 1.08 0.95 1.02 1.17 1.33 1.62 1.16 1.18 1.34 1.77 1.43 1.33 1.35 0.94 0.85 0.81 0.84 0.81 0.92 0.87 0.76 0.74 0.55 0.73 0.82 0.86 0.98 0.79 0.74 0.68 0.59 0.46 0.30 0.37 0.24 0.24
1.24 1.61 2.53 3.53 3.01 3.32 2.15 2.86 2.88 2.40 2.82 3.27 2.19 2.11 2.53 1.56 1.43 2.04 1.51 1.92 0.70 0.51 0.19 0.32 0.02 0.66 0.20 0.06 0.03 0.01 0.01 0.03 0.05 0.05 0.07 0.14 0.12 0.10 0.11 0.09 0.12 0.17 0.16 0.25 0.50 0.75 0.86 1.03 0.98 0.93 1.08 0.70 1.04 0.99 1.21 1.12 1.18 1.23 1.52 1.07 1.47 1.36 1.04 1.19 1.12 1.34 1.31 1.53 1.45 1.24 1.62 1.27 1.41 0.86 1.20 0.75 1.07 0.93 0.77 0.85 0.79 0.65 0.46 0.54 0.60 0.65 0.65 0.64 0.85 0.83 0.74 0.37 0.25 0.34 0.18 0.19 0.16
0.20 0.67 2.12 2.54 3.00 2.52 2.32 2.40 1.83 4.30 2.24 2.07 2.08 2.41 1.90 1.81 1.55 1.92 1.52 0.94 0.62 0.33 0.43 0.10 0.10 0.03 0.03 0.00 0.01 0.00 0.01 0.02 0.02 0.06 0.09 0.21 0.20 0.29 0.22 0.27 0.25 0.25 0.26 0.33 0.25 0.69 1.03 0.77 0.93 0.80 0.78 0.70 0.56 0.92 0.68 1.02 1.06 1.10 1.08 1.29 1.35 1.48 1.14 1.15 1.15 1.19 1.62 1.69 1.23 1.54 1.15 0.96 0.83 0.84 0.94 0.93 0.64 0.65 0.45 0.62 0.71 0.53 0.49 0.46 0.53 0.58 0.75 0.87 0.83 0.73 0.70 0.53 0.30 0.35 0.18 0.25 0.27
0.91 1.26 2.93 2.53 2.94 2.96 1.39 1.89 1.55 1.62 2.53 1.27 1.07 1.69 2.01 1.85 1.26 1.54 1.39 1.24 1.05 0.42 0.52 0.03 0.03 0.17 0.01 0.00 0.00 0.00 0.01 0.03 0.04 0.08 0.14 0.14 0.13 0.19 0.21 0.22 0.23 0.31 0.40 0.60 0.62 0.61 0.56 0.66 0.53 0.69 0.78 0.70 0.76 0.39 0.46 0.59 0.93 1.12 1.12 1.41 1.18 1.27 1.15 1.30 1.10 0.79 1.24 1.29 1.57 1.37 1.06 0.81 0.74 1.16 0.92 0.84 0.79 0.68 0.60 0.46 0.46 0.56 0.56 0.31 0.58 0.73 1.08 0.98 0.86 0.74 0.62 0.46 0.27 0.20 0.16 0.21 0.32
0.60 1.12 2.02 2.74 2.09 2.13 1.21 1.32 0.74 1.82 2.11 1.29 1.46 1.41 1.98 1.92 1.81 0.97 0.89 1.24 0.81 0.44 0.32 0.05 0.10 0.02 0.01 0.00 0.00 0.01 0.02 0.03 0.03 0.02 0.04 0.05 0.09 0.04 0.06 0.11 0.17 0.21 0.33 0.39 0.48 0.25 0.30 0.54 0.49 0.43 0.59 0.59 0.59 0.75 0.52 0.68 0.59 0.90 1.15 0.99 1.28 1.51 1.55 0.96 0.91 0.99 0.95 0.97 0.84 1.01 1.26 0.89 0.68 0.83 0.84 0.38 0.59 0.52 0.38 0.37 0.39 0.53 0.37 0.37 0.83 0.66 0.76 0.81 0.84 0.80 0.78 0.37 0.20 0.07 0.30 0.24 0.24
0.55 0.54 1.42 1.33 0.98 1.50 1.22 1.11 0.53 0.69 1.01 1.36 1.19 1.40 1.85 1.67 1.53 1.03 1.28 0.82 0.35 0.47 0.12 0.10 0.07 0.04 0.01 0.01 0.01 0.02 0.02 0.02 0.01 0.01 0.03 0.02 0.02 0.02 0.07 0.06 0.13 0.12 0.17 0.35 0.26 0.35 0.29 0.28 0.30 0.34 0.47 0.39 0.60 0.74 0.80 0.53 1.00 0.99 1.03 1.14 1.01 0.85 1.00 0.74 0.89 0.87 1.03 0.88 0.70 0.70 0.74 0.71 0.78 0.80 0.54 0.34 0.43 0.43 0.60 0.46 0.39 0.39 0.28 0.28 0.49 0.81 0.82 0.65 0.80 0.69 0.29 0.08 0.12 0.37 0.34 0.33 0.35
0.55 0.47 1.35 0.83 0.76 1.56 1.46 1.19 0.65 0.31 0.83 1.12 1.41 1.01 1.29 1.59 1.67 1.49 0.92 0.82 0.82 0.58 0.56 0.09 0.04 0.02 0.02 0.00 0.01 0.01 0.02 0.02 0.02 0.01 0.01 0.02 0.02 0.02 0.03 0.03 0.05 0.11 0.17 0.13 0.18 0.22 0.20 0.20 0.34 0.67 0.38 0.35 0.43 0.72 0.94 0.67 0.61 1.00 1.03 0.78 0.89 0.73 0.63 0.40 0.47 0.76 0.74 0.97 1.00 1.14 0.49 0.54 0.61 0.48 0.48 0.32 0.52 0.48 0.69 0.58 0.69 0.49 0.47 0.41 0.35 0.77 0.80 0.94 0.56 0.54 0.38 0.22 0.33 0.29 0.24 0.23 0.22
0.02 0.34 0.50 0.66 0.76 1.50 0.92 1.00 0.42 0.55 0.97 1.27 1.16 1.16 1.39 0.84 1.38 1.56 1.83 1.60 1.16 1.12 0.13 0.17 0.02 0.00 0.01 0.00 0.00 0.01 0.01 0.02 0.01 0.01 0.01 0.00 0.01 0.02 0.02 0.05 0.04 0.07 0.09 0.14 0.14 0.21 0.26 0.20 0.25 0.24 0.27 0.31 0.42 0.52 0.43 0.57 0.46 0.60 1.19 0.71 0.64 0.64 0.52 0.35 0.39 0.68 0.92 1.08 0.92 0.72 0.54 0.51 0.47 0.37 0.42 0.37 0.39 0.45 0.42 0.55 0.61 0.31 0.34 0.22 0.33 0.73 0.43 0.42 0.63 0.53 0.32 0.30 0.21 0.17 0.11 0.10 0.14
0.38 0.10 0.17 0.14 0.36 0.60 0.69 0.76 0.54 0.47 0.80 0.91 1.64 1.47 1.07 1.25 1.68 1.08 1.24 2.24 1.50 1.03 0.33 0.16 0.01 0.00 0.00 0.00 0.00 0.00 0.01 0.01 0.01 0.00 0.01 0.00 0.01 0.01 0.02 0.02 0.04 0.09 0.08 0.10 0.18 0.14 0.15 0.20 0.19 0.19 0.26 0.30 0.15 0.36 0.46 0.65 0.78 0.57 0.59 0.43 0.46 0.35 0.61 0.68 0.61 0.41 0.36 0.41 0.68 0.54 0.49 0.69 0.50 0.32 0.28 0.29 0.39 0.41 0.22 0.30 0.73 0.44 0.48 0.31 0.55 0.85 0.16 0.31 0.30 0.15 0.12 0.15 0.13 0.13 0.09 0.14 0.22
0.00 0.06 0.06 0.17 0.17 0.47 0.36 0.88 0.92 1.50 1.76 1.88 1.31 0.81 1.14 1.14 1.13 1.20 1.21 0.91 0.73 0.60 0.25 0.25 0.05 0.00 0.00 0.00 0.00 0.00 0.00 0.00 0.00 0.00 0.00 0.00 0.00 0.00 0.00 0.02 0.02 0.04 0.06 0.09 0.09 0.12 0.18 0.19 0.12 0.16 0.18 0.23 0.40 0.46 0.43 0.44 0.60 0.50 0.35 0.44 0.74 0.77 0.88 0.57 0.37 0.39 0.23 0.51 0.42 0.87 0.38 0.32 0.33 0.23 0.22 0.26 0.16 0.23 0.26 0.38 0.20 0.23 0.34 0.44 0.58 0.11 0.33 0.39 0.28 0.10 0.10 0.11 0.11 0.08 0.10 0.09 0.15
0.02 0.08 0.05 0.19 0.17 0.34 0.38 1.05 1.83 1.33 1.65 1.99 1.58 0.92 1.33 1.65 1.72 0.77 1.34 0.78 0.36 0.66 0.36 0.10 0.14 0.00 0.00 0.02 0.00 0.00 0.00 0.00 0.01 0.01 0.01 0.01 0.02 0.01 0.01 0.01 0.01 0.01 0.03 0.03 0.05 0.14 0.15 0.26 0.20 0.15 0.22 0.16 0.23 0.38 0.31 0.31 0.37 0.58 0.58 0.75 0.92 0.65 0.56 0.36 0.34 0.22 0.18 0.48 0.47 0.48 0.44 0.24 0.31 0.21 0.17 0.18 0.11 0.13 0.20 0.16 0.36 0.33 0.24 0.27 0.35 0.41 0.17 0.24 0.33 0.13 0.15 0.15 0.13 0.10 0.11 0.22 0.04
0.02 0.03 0.03 0.40 0.41 0.32 0.98 0.85 1.59 1.42 1.89 2.24 1.76 1.72 1.72 1.39 1.19 1.72 1.46 0.57 0.70 0.55 0.42 0.10 0.07 0.01 0.00 0.00 0.00 0.00 0.00 0.00 0.00 0.00 0.00 0.00 0.00 0.00 0.01 0.01 0.01 0.01 0.02 0.02 0.03 0.09 0.11 0.21 0.29 0.17 0.21 0.18 0.19 0.53 0.27 0.36 0.31 0.73 0.38 0.38 0.32 0.47 0.27 0.24 0.13 0.17 0.42 0.24 0.28 0.60 0.30 0.21 0.20 0.12 0.10 0.10 0.12 0.14 0.22 0.22 0.27 0.16 0.25 0.29 0.34 0.28 0.23 0.26 0.29 0.15 0.15 0.12 0.04 0.10 0.12 0.06 0.08
0.00 0.00 0.07 0.28 0.59 0.66 0.63 1.28 1.16 1.95 2.64 2.15 1.94 1.58 1.60 1.60 1.17 1.94 0.88 0.65 0.30 0.36 0.23 0.21 0.04 0.02 0.00 0.00 0.01 0.00 0.00 0.00 0.01 0.00 0.00 0.01 0.00 0.00 0.00 0.00 0.00 0.01 0.03 0.05 0.02 0.09 0.10 0.14 0.14 0.12 0.18 0.16 0.12 0.18 0.21 0.22 0.26 0.47 0.41 0.34 0.56 0.33 0.36 0.14 0.17 0.20 0.40 0.34 0.31 0.32 0.35 0.08 0.14 0.11 0.15 0.15 0.18 0.08 0.15 0.28 0.18 0.34 0.34 0.31 0.14 0.15 0.23 0.17 0.14 0.11 0.07 0.20 0.21 0.16 0.11 0.07 0.04
0.01 0.06 0.07 0.19 0.60 1.06 0.99 1.15 1.32 1.84 2.76 2.93 2.19 1.93 1.39 1.88 1.10 2.12 0.68 0.64 0.38 0.48 0.35 0.18 0.05 0.01 0.01 0.00 0.00 0.01 0.01 0.00 0.00 0.00 0.00 0.01 0.00 0.00 0.00 0.00 0.01 0.00 0.01 0.02 0.02 0.05 0.08 0.13 0.12 0.15 0.09 0.09 0.11 0.17 0.20 0.17 0.27 0.29 0.32 0.31 0.27 0.16 0.23 0.20 0.16 0.28 0.56 0.39 0.28 0.49 0.32 0.06 0.14 0.17 0.14 0.18 0.13 0.16 0.18 0.27 0.32 0.61 0.61 0.24 0.22 0.32 0.28 0.26 0.17 0.11 0.11 0.12 0.17 0.24 0.05 0.05 0.01
0.01 0.04 0.18 0.32 0.47 0.73 1.17 1.27 2.10 1.45 1.96 2.92 3.07 2.52 2.01 1.23 1.36 1.00 0.54 0.32 0.71 0.56 0.62 0.53 0.08 0.02 0.01 0.00 0.00 0.00 0.01 0.00 0.00 0.00 0.01 0.00 0.00 0.00 0.00 0.00 0.00 0.00 0.03 0.00 0.01 0.03 0.06 0.06 0.08 0.16 0.12 0.08 0.10 0.15 0.16 0.16 0.19 0.17 0.28 0.38 0.23 0.12 0.38 0.20 0.14 0.13 0.19 0.64 0.47 0.32 0.22 0.08 0.08 0.08 0.08 0.13 0.16 0.26 0.25 0.40 0.42 0.38 0.36 0.23 0.31 0.32 0.24 0.26 0.12 0.19 0.15 0.16 0.32 0.29 0.11 0.10 0.03
0.00 0.02 0.20 0.29 0.69 0.84 1.15 1.55 1.98 1.33 1.63 2.06 2.69 2.04 2.04 1.81 1.57 1.14 0.36 0.55 0.64 1.04 1.23 0.65 0.49 0.05 0.00 0.00 0.00 0.01 0.00 0.00 0.00 0.00 0.00 0.00 0.00 0.00 0.00 0.00 0.00 0.00 0.00 0.01 0.01 0.03 0.05 0.04 0.07 0.10 0.09 0.10 0.07 0.17 0.16 0.20 0.19 0.23 0.44 0.24 0.19 0.18 0.25 0.35 0.13 0.07 0.09 0.21 0.29 0.32 0.20 0.11 0.19 0.18 0.17 0.21 0.32 0.30 0.29 0.23 0.54 0.32 0.25 0.27 0.27 0.38 0.28 0.33 0.28 0.19 0.17 0.31 0.14 0.26 0.14 0.08 0.02
0.01 0.07 0.04 0.65 0.21 1.41 0.66 1.31 1.81 1.98 1.93 2.44 1.10 2.21 2.84 2.31 1.39 1.05 0.76 1.04 0.81 1.13 0.69 0.59 0.59 0.20 0.02 0.02 0.00 0.00 0.00 0.00 0.00 0.00 0.01 0.00 0.00 0.00 0.00 0.00 0.01 0.00 0.00 0.00 0.00 0.01 0.01 0.03 0.05 0.13 0.06 0.07 0.08 0.10 0.13 0.13 0.22 0.18 0.30 0.15 0.16 0.26 0.18 0.17 0.08 0.04 0.05 0.15 0.21 0.21 0.20 0.29 0.33 0.20 0.24 0.22 0.21 0.16 0.27 0.39 0.25 0.31 0.26 0.27 0.45 0.25 0.50 0.44 0.27 0.28 0.37 0.51 0.42 0.09 0.10 0.08 0.03
0.00 0.11 0.08 0.17 0.14 1.35 0.93 0.65 0.67 1.23 1.38 1.60 0.97 1.57 2.47 1.96 2.05 0.87 0.78 1.12 1.36 1.17 0.80 0.97 0.59 0.25 0.04 0.01 0.02 0.02 0.01 0.00 0.00 0.01 0.00 0.01 0.00 0.00 0.00 0.00 0.00 0.00 0.00 0.00 0.00 0.00 0.01 0.00 0.01 0.05 0.06 0.05 0.05 0.04 0.13 0.06 0.13 0.26 0.20 0.08 0.22 0.35 0.14 0.12 0.09 0.07 0.06 0.11 0.19 0.13 0.19 0.27 0.29 0.31 0.32 0.23 0.19 0.36 0.25 0.29 0.48 0.47 0.16 0.55 0.38 0.31 0.40 0.28 0.26 0.27 0.26 0.64 0.26 0.16 0.05 0.05 0.04
0.01 0.01 0.06 0.20 0.34 0.82 1.07 0.64 0.94 1.36 0.68 1.35 1.42 2.35 1.99 2.37 2.28 1.79 1.11 1.39 1.26 1.53 1.10 0.63 0.46 0.49 0.08 0.04 0.03 0.03 0.00 0.00 0.00 0.01 0.02 0.00 0.01 0.00 0.00 0.00 0.00 0.00 0.00 0.00 0.00 0.00 0.00 0.00 0.01 0.03 0.04 0.04 0.04 0.05 0.14 0.10 0.17 0.09 0.05 0.11 0.08 0.28 0.18 0.18 0.08 0.12 0.05 0.54 0.62 0.21 0.34 0.22 0.17 0.34 0.35 0.30 0.32 0.45 0.32 0.40 0.36 0.40 0.50 0.50 0.37 0.49 0.43 0.32 0.58 0.26 0.15 0.17 0.19 0.19 0.10 0.08 0.04
0.03 0.01 0.06 0.13 0.33 0.27 0.70 0.75 1.15 1.08 0.73 1.32 1.28 1.64 2.11 1.48 1.26 1.29 1.02 1.10 1.28 1.54 1.16 0.67 0.64 0.67 0.09 0.03 0.05 0.16 0.02 0.01 0.01 0.00 0.02 0.03 0.01 0.00 0.00 0.00 0.00 0.00 0.00 0.00 0.00 0.00 0.00 0.00 0.00 0.01 0.02 0.02 0.02 0.05 0.05 0.07 0.08 0.05 0.10 0.11 0.08 0.39 0.10 0.07 0.17 0.09 0.30 0.32 0.20 0.23 0.26 0.28 0.41 0.29 0.28 0.26 0.37 0.18 0.29 0.42 0.27 0.17 0.24 0.30 0.38 0.42 0.31 0.31 0.24 0.27 0.33 0.18 0.14 0.16 0.16 0.17 0.07
0.01 0.03 0.11 0.33 0.53 0.32 0.67 0.53 0.65 0.57 0.76 0.66 0.89 1.26 1.94 1.48 1.17 0.93 0.99 1.03 1.18 1.04 1.00 1.16 0.79 0.54 0.14 0.40 0.21 0.05 0.03 0.04 0.02 0.00 0.01 0.02 0.00 0.00 0.00 0.00 0.00 0.00 0.00 0.00 0.00 0.00 0.00 0.00 0.03 0.01 0.01 0.03 0.03 0.03 0.03 0.05 0.06 0.07 0.10 0.06 0.19 0.11 0.14 0.10 0.06 0.09 0.11 0.14 0.36 0.29 0.31 0.30 0.31 0.49 0.27 0.28 0.18 0.19 0.24 0.25 0.20 0.31 0.30 0.19 0.32 0.58 0.40 0.34 0.28 0.22 0.26 0.12 0.08 0.18 0.10 0.05 0.05
0.01 0.03 0.18 0.15 0.32 0.87 0.53 0.55 0.22 0.12 0.54 1.18 0.94 1.12 1.91 1.47 1.43 1.36 1.28 0.85 0.93 1.74 1.44 1.55 0.65 0.83 0.27 0.33 0.14 0.07 0.04 0.04 0.02 0.01 0.02 0.42 0.03 0.00 0.00 0.00 0.00 0.00 0.00 0.00 0.00 0.01 0.01 0.01 0.00 0.01 0.02 0.02 0.01 0.03 0.03 0.03 0.04 0.05 0.08 0.08 0.04 0.11 0.08 0.05 0.06 0.07 0.12 0.19 0.22 0.13 0.29 0.45 0.33 0.37 0.18 0.23 0.21 0.23 0.31 0.23 0.27 0.18 0.28 0.28 0.42 0.50 0.27 0.22 0.30 0.23 0.10 0.12 0.18 0.11 0.03 0.01 0.02
0.00 0.00 0.07 0.27 0.44 0.34 0.45 0.53 0.28 0.47 0.59 0.94 0.87 0.82 1.34 1.39 0.99 1.20 0.99 1.10 1.81 1.47 1.06 1.02 1.04 0.59 0.36 0.43 0.17 0.06 0.04 0.04 0.02 0.04 0.04 0.23 0.03 0.01 0.00 0.00 0.00 0.00 0.00 0.00 0.00 0.00 0.00 0.00 0.01 0.01 0.01 0.01 0.01 0.02 0.05 0.04 0.04 0.06 0.05 0.05 0.09 0.10 0.07 0.04 0.05 0.05 0.07 0.10 0.03 0.08 0.17 0.40 0.46 0.50 0.31 0.32 0.18 0.21 0.27 0.48 0.34 0.30 0.22 0.34 0.26 0.35 0.23 0.39 0.16 0.13 0.11 0.09 0.20 0.06 0.07 0.02 0.02
0.01 0.03 0.11 0.49 0.21 0.52 0.52 0.51 0.75 1.16 1.27 1.34 0.62 1.10 1.10 1.49 1.76 1.11 1.36 1.10 1.11 1.17 1.04 1.20 0.72 0.65 0.64 0.52 0.23 0.22 0.23 0.03 0.04 0.01 0.02 0.02 0.01 0.01 0.00 0.00 0.00 0.00 0.00 0.00 0.00 0.02 0.00 0.00 0.00 0.01 0.01 0.01 0.01 0.01 0.02 0.02 0.03 0.04 0.03 0.04 0.05 0.09 0.12 0.13 0.14 0.05 0.06 0.16 0.14 0.10 0.34 0.25 0.36 0.29 0.22 0.30 0.17 0.10 0.23 0.13 0.21 0.26 0.22 0.47 0.25 0.18 0.16 0.08 0.08 0.18 0.13 0.16 0.16 0.07 0.03 0.05 0.09
0.00 0.03 0.28 0.24 0.51 0.53 0.47 0.50 0.47 1.88 1.00 1.71 1.12 1.24 1.05 1.47 1.67 1.99 0.84 0.43 0.54 0.77 0.92 1.28 0.97 0.95 0.45 0.77 0.55 0.97 0.15 0.17 0.02 0.04 0.02 0.05 0.02 0.00 0.00 0.00 0.00 0.00 0.00 0.00 0.00 0.01 0.01 0.02 0.00 0.01 0.01 0.01 0.01 0.01 0.01 0.01 0.01 0.01 0.09 0.08 0.06 0.07 0.10 0.12 0.18 0.10 0.28 0.09 0.12 0.24 0.16 0.37 0.29 0.22 0.25 0.17 0.13 0.17 0.24 0.28 0.31 0.33 0.22 0.16 0.17 0.17 0.12 0.17 0.16 0.12 0.12 0.22 0.15 0.03 0.02 0.01 0.02
0.00 0.03 0.04 0.19 0.13 0.19 0.50 0.68 0.17 0.73 0.42 0.78 1.00 1.09 1.53 2.35 2.10 1.77 1.92 0.97 1.52 0.96 1.28 1.90 2.15 1.69 0.82 0.44 0.69 0.60 0.24 0.12 0.04 0.01 0.03 0.04 0.03 0.03 0.00 0.00 0.00 0.00 0.00 0.00 0.00 0.03 0.01 0.02 0.01 0.01 0.01 0.00 0.01 0.01 0.02 0.01 0.03 0.02 0.03 0.04 0.12 0.10 0.14 0.13 0.23 0.14 0.09 0.10 0.10 0.09 0.14 0.08 0.12 0.18 0.23 0.11 0.16 0.25 0.31 0.31 0.33 0.23 0.17 0.13 0.13 0.29 0.15 0.15 0.13 0.20 0.10 0.13 0.21 0.19 0.04 0.04 0.01
0.00 0.01 0.02 0.05 0.04 0.12 0.02 0.44 0.31 0.73 0.55 0.42 1.13 0.94 2.04 2.10 1.84 1.70 1.95 1.85 1.79 1.44 1.29 1.83 1.72 1.67 0.87 0.79 0.75 0.85 0.45 0.16 0.07 0.05 0.01 0.01 0.04 0.02 0.02 0.00 0.00 0.00 0.00 0.00 0.00 0.00 0.01 0.02 0.01 0.02 0.02 0.01 0.01 0.01 0.02 0.04 0.07 0.03 0.04 0.07 0.13 0.13 0.08 0.09 0.10 0.10 0.10 0.12 0.12 0.09 0.14 0.09 0.16 0.10 0.11 0.14 0.23 0.30 0.16 0.21 0.18 0.13 0.13 0.12 0.12 0.29 0.23 0.24 0.22 0.12 0.14 0.15 0.19 0.24 0.12 0.08 0.04
0.00 0.00 0.00 0.00 0.01 0.23 0.01 0.11 0.30 0.34 0.55 0.45 0.49 0.75 1.10 1.56 1.28 0.97 1.27 1.41 1.23 0.96 0.77 0.80 1.28 1.44 1.85 0.95 0.41 0.61 0.75 0.20 0.22 0.02 0.01 0.01 0.02 0.04 0.01 0.00 0.00 0.00 0.00 0.00 0.00 0.00 0.01 0.02 0.01 0.00 0.01 0.02 0.02 0.01 0.04 0.04 0.04 0.06 0.14 0.18 0.14 0.09 0.12 0.09 0.07 0.06 0.09 0.07 0.24 0.10 0.24 0.17 0.11 0.24 0.13 0.14 0.25 0.22 0.12 0.12 0.08 0.15 0.09 0.12 0.12 0.20 0.11 0.17 0.11 0.26 0.11 0.16 0.15 0.12 0.08 0.04 0.08
0.00 0.00 0.00 0.00 0.00 0.01 0.10 0.55 1.03 0.18 0.26 0.67 0.40 0.41 0.85 0.81 1.27 0.82 0.76 0.86 0.80 0.89 0.82 0.78 0.99 1.27 1.05 0.95 1.07 0.71 0.63 0.63 0.06 0.13 0.05 0.04 0.02 0.03 0.01 0.01 0.00 0.00 0.00 0.00 0.00 0.00 0.00 0.00 0.00 0.03 0.01 0.01 0.02 0.03 0.03 0.05 0.05 0.12 0.06 0.21 0.06 0.12 0.08 0.05 0.05 0.07 0.09 0.05 0.09 0.11 0.13 0.16 0.06 0.13 0.09 0.06 0.07 0.10 0.13 0.11 0.05 0.08 0.11 0.10 0.10 0.15 0.20 0.23 0.18 0.17 0.07 0.08 0.09 0.07 0.06 0.04 0.03
0.00 0.00 0.00 0.01 0.00 0.05 0.14 0.14 0.17 0.10 0.01 0.50 0.24 0.21 0.25 0.44 0.61 0.48 0.56 0.51 0.57 0.88 0.57 0.73 0.81 1.23 1.11 0.73 0.52 0.30 0.45 0.33 0.07 0.13 0.06 0.03 0.01 0.04 0.05 0.00 0.00 0.00 0.00 0.00 0.00 0.00 0.00 0.03 0.00 0.00 0.00 0.02 0.05 0.01 0.03 0.15 0.05 0.04 0.05 0.07 0.08 0.08 0.06 0.06 0.05 0.04 0.05 0.04 0.09 0.07 0.07 0.11 0.05 0.05 0.08 0.04 0.10 0.06 0.10 0.08 0.05 0.07 0.04 0.09 0.11 0.09 0.17 0.17 0.31 0.18 0.07 0.14 0.10 0.06 0.05 0.04 0.08
0.00 0.00 0.01 0.00 0.00 0.00 0.00 0.01 0.04 0.03 0.19 0.40 0.25 0.19 0.35 0.10 0.35 0.43 0.42 0.65 0.71 0.53 0.48 0.43 0.71 0.80 0.83 0.78 0.43 0.63 0.20 0.23 0.25 0.11 0.08 0.07 0.01 0.03 0.04 0.04 0.01 0.00 0.00 0.00 0.00 0.00 0.01 0.03 0.00 0.00 0.00 0.00 0.03 0.00 0.01 0.03 0.05 0.04 0.07 0.06 0.18 0.14 0.22 0.13 0.06 0.10 0.05 0.02 0.05 0.04 0.03 0.05 0.04 0.07 0.08 0.06 0.05 0.05 0.07 0.05 0.07 0.05 0.07 0.07 0.10 0.13 0.08 0.14 0.15 0.18 0.10 0.08 0.05 0.05 0.09 0.02 0.05
0.00 0.00 0.00 0.02 0.00 0.00 0.06 0.00 0.03 0.30 0.04 0.08 0.09 0.08 0.21 0.32 0.50 0.60 0.76 0.50 0.47 0.68 0.45 0.41 0.48 0.53 0.60 0.52 0.40 0.22 0.22 0.22 0.22 0.22 0.15 0.06 0.04 0.03 0.05 0.03 0.06 0.00 0.00 0.00 0.00 0.00 0.01 0.01 0.00 0.00 0.00 0.01 0.02 0.01 0.01 0.01 0.02 0.03 0.08 0.06 0.14 0.13 0.09 0.04 0.06 0.05 0.16 0.03 0.04 0.05 0.06 0.09 0.06 0.05 0.07 0.03 0.06 0.02 0.03 0.05 0.04 0.06 0.08 0.07 0.04 0.16 0.12 0.18 0.12 0.09 0.04 0.08 0.11 0.13 0.06 0.02 0.04
0.00 0.00 0.02 0.06 0.00 0.02 0.01 0.01 0.11 0.11 0.10 0.03 0.01 0.06 0.04 0.44 0.50 0.69 0.92 0.67 0.28 0.34 0.58 0.71 0.80 0.63 0.73 0.47 0.96 0.25 0.21 0.16 0.21 0.20 0.20 0.20 0.04 0.07 0.07 0.07 0.04 0.04 0.03 0.00 0.00 0.01 0.00 0.02 0.01 0.00 0.00 0.00 0.01 0.02 0.00 0.01 0.01 0.02 0.04 0.17 0.18 0.15 0.07 0.06 0.08 0.06 0.09 0.07 0.08 0.09 0.05 0.05 0.04 0.03 0.03 0.02 0.02 0.01 0.01 0.01 0.05 0.05 0.07 0.11 0.03 0.12 0.09 0.08 0.08 0.02 0.04 0.06 0.06 0.09 0.05 0.05 0.02
0.00 0.00 0.03 0.01 0.04 0.08 0.59 0.78 0.56 0.18 0.03 0.02 0.02 0.01 0.02 0.28 0.57 0.36 0.44 0.40 0.44 0.38 0.24 0.38 0.46 0.50 0.49 0.60 1.08 0.32 0.17 0.14 0.17 0.16 0.22 0.15 0.29 0.47 0.05 0.07 0.03 0.07 0.01 0.01 0.01 0.02 0.04 0.03 0.00 0.00 0.00 0.00 0.00 0.01 0.01 0.01 0.02 0.02 0.04 0.10 0.12 0.25 0.17 0.11 0.11 0.17 0.06 0.06 0.05 0.10 0.05 0.03 0.02 0.03 0.03 0.05 0.04 0.03 0.02 0.02 0.03 0.06 0.05 0.09 0.05 0.07 0.08 0.05 0.10 0.04 0.04 0.04 0.05 0.05 0.04 0.08 0.03
0.00 0.00 0.02 0.07 0.50 0.29 0.37 0.39 0.21 0.06 0.04 0.03 0.01 0.02 0.26 0.09 0.37 0.56 0.38 0.37 0.49 0.50 0.41 0.19 0.25 0.24 0.17 0.22 0.39 0.37 0.21 0.23 0.20 0.13 0.19 0.19 0.10 0.19 0.05 0.04 0.01 0.01 0.01 0.00 0.01 0.01 0.04 0.04 0.02 0.00 0.00 0.00 0.01 0.01 0.01 0.00 0.01 0.05 0.12 0.10 0.05 0.16 0.15 0.10 0.14 0.08 0.06 0.10 0.04 0.10 0.03 0.04 0.03 0.02 0.01 0.05 0.02 0.02 0.02 0.01 0.01 0.05 0.03 0.02 0.04 0.12 0.22 0.06 0.07 0.15 0.09 0.02 0.06 0.05 0.05 0.02 0.03
0.01 0.02 0.04 0.04 0.06 0.42 0.03 0.07 0.03 0.05 0.05 0.03 0.07 0.04 0.07 0.23 0.41 0.36 0.39 0.27 0.36 0.36 0.31 0.22 0.31 0.15 0.12 0.13 0.24 0.47 0.37 0.27 0.17 0.26 0.12 0.11 0.12 0.08 0.08 0.18 0.16 0.03 0.02 0.02 0.02 0.00 0.01 0.02 0.01 0.01 0.00 0.00 0.00 0.00 0.00 0.01 0.01 0.04 0.07 0.07 0.14 0.09 0.12 0.23 0.15 0.11 0.04 0.04 0.04 0.04 0.06 0.04 0.04 0.03 0.02 0.01 0.03 0.02 0.01 0.02 0.01 0.01 0.02 0.04 0.03 0.08 0.08 0.10 0.05 0.12 0.06 0.04 0.08 0.04 0.04 0.03 0.02
0.03 0.04 0.01 0.01 0.02 0.06 0.04 0.04 0.05 0.06 0.05 0.04 0.02 0.08 0.33 0.17 1.44 0.41 0.24 0.35 0.60 0.62 0.59 0.22 0.10 0.20 0.07 0.11 0.11 0.15 0.51 0.66 0.42 0.32 0.42 0.25 0.19 0.46 0.68 0.13 0.31 0.16 0.04 0.04 0.01 0.00 0.00 0.02 0.01 0.01 0.01 0.00 0.00 0.00 0.01 0.00 0.01 0.04 0.03 0.09 0.08 0.04 0.03 0.09 0.09 0.05 0.08 0.09 0.10 0.03 0.02 0.07 0.02 0.02 0.01 0.01 0.01 0.00 0.00 0.01 0.01 0.01 0.01 0.04 0.02 0.03 0.04 0.04 0.06 0.04 0.03 0.06 0.21 0.05 0.05 0.06 0.04
0.00 0.01 0.00 0.02 0.00 0.00 0.07 0.07 0.03 0.09 0.18 0.09 0.23 0.15 0.38 0.63 0.24 0.59 0.26 0.15 0.37 0.42 0.76 0.48 0.20 0.20 0.21 0.14 0.09 0.09 0.17 0.71 0.80 0.41 0.69 0.58 0.52 0.46 0.50 0.23 0.11 0.16 0.05 0.04 0.08 0.07 0.01 0.03 0.02 0.03 0.01 0.01 0.00 0.00 0.00 0.00 0.01 0.01 0.02 0.02 0.07 0.02 0.03 0.03 0.03 0.06 0.13 0.04 0.02 0.07 0.02 0.05 0.03 0.06 0.01 0.01 0.00 0.00 0.01 0.01 0.01 0.01 0.02 0.03 0.03 0.02 0.03 0.04 0.06 0.04 0.06 0.04 0.15 0.09 0.02 0.04 0.03
0.13 0.02 0.03 0.02 0.00 0.00 0.01 0.03 0.01 0.06 0.07 0.08 0.03 0.04 0.24 0.22 0.42 0.32 0.87 0.55 0.43 0.32 0.45 0.67 0.40 0.53 0.48 0.21 0.70 0.35 0.28 0.56 1.63 1.02 1.06 1.24 1.49 1.04 0.86 0.63 0.28 0.27 0.11 0.11 0.47 0.49 0.50 0.43 0.33 0.17 0.02 0.08 0.01 0.00 0.00 0.00 0.00 0.00 0.02 0.01 0.02 0.05 0.07 0.05 0.06 0.19 0.17 0.12 0.06 0.10 0.04 0.03 0.04 0.05 0.06 0.00 0.02 0.00 0.01 0.01 0.01 0.03 0.03 0.02 0.05 0.02 0.02 0.05 0.06 0.04 0.07 0.06 0.10 0.02 0.04 0.05 0.04
0.01 0.02 0.14 0.01 0.00 0.00 0.01 0.05 0.10 0.09 0.08 0.12 0.01 0.33 0.48 0.26 0.76 0.25 0.51 0.75 0.72 0.43 1.05 0.82 0.41 0.54 0.68 0.69 0.18 0.27 0.61 0.63 1.42 1.67 2.10 2.08 2.25 1.64 1.16 0.91 0.55 0.61 0.22 0.34 0.47 0.39 0.39 0.58 0.52 0.30 0.14 0.03 0.04 0.01 0.00 0.00 0.00 0.00 0.00 0.00 0.01 0.03 0.04 0.03 0.03 0.07 0.04 0.04 0.15 0.02 0.02 0.05 0.02 0.02 0.00 0.06 0.01 0.03 0.00 0.00 0.00 0.01 0.02 0.02 0.02 0.02 0.03 0.02 0.06 0.03 0.05 0.06 0.03 0.03 0.05 0.08 0.03
0.00 0.01 0.01 0.02 0.21 0.04 0.04 0.00 0.06 0.07 0.09 0.15 0.04 0.20 0.29 0.22 0.55 0.51 0.37 0.43 0.34 0.61 0.34 0.55 0.48 0.54 0.71 0.82 1.11 0.91 0.81 0.62 0.61 1.18 1.75 1.46 1.56 2.55 1.96 1.40 0.82 1.00 1.28 1.26 0.39 0.57 0.61 0.84 0.52 0.65 0.48 0.11 0.05 0.06 0.00 0.00 0.00 0.00 0.00 0.01 0.00 0.01 0.02 0.02 0.01 0.02 0.01 0.03 0.06 0.03 0.04 0.07 0.00 0.02 0.00 0.06 0.01 0.01 0.01 0.01 0.00 0.00 0.01 0.01 0.01 0.02 0.02 0.02 0.04 0.07 0.03 0.06 0.03 0.02 0.04 0.08 0.03
0.00 0.00 0.04 0.00 0.01 0.04 0.15 0.06 0.31 0.01 0.16 0.02 0.31 0.42 0.43 0.35 0.67 0.33 0.79 0.47 0.58 0.14 0.29 0.40 0.40 0.61 0.38 0.71 0.62 0.57 0.49 0.50 0.85 1.41 2.03 2.12 1.84 1.98 1.76 1.49 1.27 1.02 1.10 0.68 0.45 0.81 0.45 0.51 0.51 0.67 0.43 0.31 0.54 0.16 0.03 0.00 0.01 0.00 0.00 0.00 0.00 0.00 0.00 0.00 0.00 0.01 0.04 0.03 0.01 0.02 0.03 0.01 0.02 0.02 0.00 0.00 0.03 0.04 0.02 0.00 0.00 0.01 0.03 0.03 0.05 0.01 0.01 0.02 0.02 0.03 0.07 0.04 0.04 0.04 0.03 0.02 0.03
0.04 0.01 0.03 0.03 0.01 0.06 0.03 0.04 0.03 0.12 0.18 0.06 0.23 0.45 0.80 0.85 1.28 1.10 0.97 0.91 0.97 0.89 0.44 0.56 0.35 0.45 0.51 0.65 0.88 0.47 0.31 0.33 0.27 0.80 1.31 1.48 1.54 1.62 1.71 1.09 0.94 1.00 1.09 1.47 0.94 0.47 0.52 0.27 0.24 0.25 0.21 0.26 0.15 0.07 0.12 0.02 0.01 0.01 0.00 0.00 0.00 0.00 0.00 0.00 0.01 0.01 0.01 0.01 0.00 0.00 0.02 0.01 0.06 0.01 0.01 0.01 0.01 0.01 0.00 0.02 0.01 0.00 0.01 0.01 0.02 0.03 0.02 0.02 0.02 0.02 0.02 0.02 0.07 0.08 0.04 0.08 0.02
0.06 0.12 0.25 0.06 0.10 0.14 0.07 0.13 0.01 0.02 0.02 0.02 0.05 0.26 0.64 0.64 0.37 0.79 0.66 0.90 0.92 0.45 0.41 0.42 0.45 0.33 0.45 0.60 0.87 0.76 0.48 0.28 0.20 0.25 0.35 0.83 0.96 1.15 1.05 1.43 1.11 1.04 0.68 1.07 0.97 0.79 1.21 0.99 0.72 0.38 0.65 0.79 0.41 0.14 0.03 0.04 0.01 0.00 0.01 0.00 0.00 0.00 0.00 0.00 0.00 0.01 0.01 0.02 0.02 0.00 0.03 0.01 0.02 0.01 0.00 0.00 0.03 0.01 0.02 0.01 0.02 0.00 0.00 0.01 0.08 0.01 0.01 0.01 0.02 0.02 0.02 0.03 0.04 0.02 0.03 0.01 0.01